Home > Weather > Springfield > Past weeks

Flag for USA Weather for the Past 2 Weeks in Springfield, Missouri, USA

Now
70 °F

Sunny.


Feels Like: 76 °F
Forecast: 43 / 71 °F
Wind: 21 mph from North

Location: Springfield Regional Airport

Current Time: May 5, 2016 at 1:40:07 PM

Latest Report: May 5, 2016 at 12:52 PM


Visibility: 10 mi

Pressure: 30.04 "Hg

Humidity: 29%

Dew Point: 36 °F

Location of SpringfieldLocation

Historic Weather in Springfield — Graph

°F

Springfield Temperature Yesterday

Maximum temperature yesterday: 71 °F (at 2:52 PM)
Minimum temperature yesterday: 50 °F (at 1:52 AM)
Average temperature yesterday: 61 °F

High & Low Weather Summary for the Past Weeks

 TemperatureHumidityPressure
High83 °F (Apr 26, 2:52 PM)96% (May 3, 6:52 AM)30.11 "Hg (May 3, 6:52 AM)
Low42 °F (May 3, 6:52 AM)29% (May 4, 1:52 PM)29.55 "Hg (Apr 27, 6:52 AM)
Average62 °F66%29.89 "Hg
* Reported Apr 20 12:00 Noon — May 5 11:52 AM, Springfield, Weather by CustomWeather, © 2016

Note: Actual official high and low records may vary slightly from our data, if they occured in-between our weather recording intervals... More about our weather records

Advertising

Springfield Weather History for the Previous 24 Hours

Scroll right to see more
 ConditionsComfort  
Time TempWeatherWind HumidityBarometerVisibility
11:52 AM
Thu, May 5
68 °FSunny.15 mph35%30.05 "Hg10 mi
10:52 AM66 °FSunny.16 mph39%30.04 "Hg10 mi
9:52 AM63 °FSunny.9 mph47%30.05 "Hg10 mi
8:52 AM58 °FSunny.10 mph56%30.04 "Hg10 mi
7:52 AM54 °FSunny.6 mph59%30.02 "Hg10 mi
6:52 AM48 °FClear.3 mph66%30.00 "Hg10 mi
5:52 AM44 °FClear.3 mph73%29.98 "Hg10 mi
4:52 AM44 °FClear.No wind76%29.97 "Hg10 mi
3:52 AM44 °FClear.No wind76%29.96 "Hg10 mi
2:52 AM47 °FClear.No wind71%29.96 "Hg10 mi
1:52 AM47 °FClear.No wind71%29.97 "Hg10 mi
12:52 AM49 °FClear.5 mph66%29.98 "Hg10 mi
11:52 PM
Wed, May 4
53 °FClear.5 mph56%29.97 "Hg10 mi
10:52 PM55 °FClear.3 mph51%29.96 "Hg10 mi
9:52 PM58 °FClear.5 mph46%29.95 "Hg10 mi
8:52 PM57 °FSunny.6 mph49%29.93 "Hg10 mi
7:52 PM60 °FSunny.8 mph46%29.92 "Hg10 mi
6:52 PM67 °FSunny.15 mph35%29.90 "Hg10 mi
5:52 PM69 °FSunny.15 mph33%29.91 "Hg10 mi
4:52 PM70 °FSunny.18 mph30%29.90 "Hg10 mi
3:52 PM71 °FSunny.18 mph32%29.90 "Hg10 mi
2:52 PM71 °FSunny.21 mph31%29.90 "Hg10 mi
1:52 PM70 °FSunny.20 mph29%29.90 "Hg10 mi
Weather by CustomWeather, © 2016

See weather overviewHow to use our weather pages